Terminal Aerodrome Forecast
Issued by NWS

Home | Current Version | Previous Version | Text Only | Print | Product List | Glossary On
Versions: 1 2 3 4 5 6 7 8 9 10 11 12 13 14 15
057
FTUS44 KLIX 121438 AAA
TAFMSY
TAF AMD
KMSY 121438Z 1215/1312 25008KT P6SM BKN027
     FM121530 26010KT P6SM SCT030
     FM130000 30006KT P6SM SCT200
     FM130400 01007KT P6SM SCT250
     FM131000 03011G22KT P6SM SKC=

USA.gov is the U.S. government's official web portal to all federal, state and local government web resources and services.